| time (UTC) | temp F | wind direction | speed MPH | gust MPH | rain 1hr in | rain 24hr in | rain mn in | humidity % | barometer mb |
| 20260504021533 | 45 | 286 | 0.0 | 0.0 | 0.00 | 0.00 | 0.00 | 64 | 1009.8 |
| 20260504021010 | 45 | 286 | 0.0 | 1.0 | 0.00 | 0.00 | 0.00 | 63 | 1009.7 |
| 20260504020530 | 45 | 286 | 0.0 | 2.0 | 0.00 | 0.00 | 0.00 | 63 | 1009.9 |
| 20260504020046 | 45 | 286 | 0.0 | 2.0 | 0.00 | 0.00 | 0.00 | 62 | 1009.8 |
| 20260504015530 | 45 | 286 | 0.0 | 0.0 | 0.00 | 0.00 | 0.00 | 62 | 1009.8 |
| 20260504015047 | 46 | 286 | 0.0 | 0.0 | 0.00 | 0.00 | 0.00 | 62 | 1009.8 |
| 20260504014530 | 46 | 286 | 0.0 | 1.0 | 0.00 | 0.00 | 0.00 | 60 | 1009.6 |
| 20260504014009 | 47 | 286 | 0.0 | 1.0 | 0.00 | 0.00 | 0.00 | 59 | 1009.5 |
| 20260504013532 | 47 | 286 | 0.0 | 0.0 | 0.00 | 0.00 | 0.00 | 58 | 1009.6 |
| 20260504013004 | 47 | 286 | 0.0 | 0.0 | 0.00 | 0.00 | 0.00 | 58 | 1009.7 |
| 20260504012522 | 47 | 286 | 0.0 | 0.0 | 0.00 | 0.00 | 0.00 | 57 | 1009.7 |
| 20260504012056 | 48 | 286 | 0.0 | 2.0 | 0.00 | 0.00 | 0.00 | 56 | 1009.7 |
| 20260504011518 | 48 | 286 | 0.0 | 2.0 | 0.00 | 0.00 | 0.00 | 56 | 1009.7 |
| 20260504011049 | 48 | 286 | 0.0 | 1.0 | 0.00 | 0.00 | 0.00 | 56 | 1009.7 |
| 20260504010510 | 48 | 286 | 0.0 | 2.0 | 0.00 | 0.00 | 0.00 | 55 | 1009.6 |
| 20260504010050 | 48 | 286 | 0.0 | 2.0 | 0.00 | 0.00 | 0.00 | 54 | 1009.5 |
| 20260504005510 | 49 | 294 | 0.0 | 2.0 | 0.00 | 0.00 | 0.00 | 53 | 1009.6 |
| 20260504005040 | 49 | 294 | 0.0 | 1.0 | 0.00 | 0.00 | 0.00 | 53 | 1009.5 |
| 20260504004555 | 49 | 294 | 0.0 | 3.0 | 0.00 | 0.00 | 0.00 | 52 | 1009.4 |
| 20260504004037 | 50 | 294 | 0.0 | 3.0 | 0.00 | 0.00 | 0.00 | 52 | 1009.4 |
| 20260504003554 | 50 | 328 | 0.0 | 6.0 | 0.00 | 0.00 | 0.00 | 51 | 1009.4 |
| 20260504003045 | 50 | 323 | 0.0 | 9.0 | 0.00 | 0.00 | 0.00 | 52 | 1009.3 |
| 20260504002551 | 50 | 342 | 1.0 | 7.0 | 0.00 | 0.00 | 0.00 | 50 | 1009.2 |
| 20260504002034 | 50 | 355 | 1.0 | 5.0 | 0.00 | 0.00 | 0.00 | 50 | 1009.2 |
| 20260504001551 | 50 | 325 | 1.0 | 9.0 | 0.00 | 0.00 | 0.00 | 49 | 1009.1 |
| 20260504001016 | 50 | 292 | 3.0 | 9.0 | 0.00 | 0.00 | 0.00 | 48 | 1009.1 |
| 20260504000549 | 50 | 298 | 1.0 | 6.0 | 0.00 | 0.00 | 0.00 | 48 | 1009.2 |
| 20260504000032 | 51 | 355 | 2.0 | 3.0 | 0.00 | 0.00 | 0.00 | 47 | 1009.1 |
| 20260503235549 | 51 | 292 | 0.0 | 7.0 | 0.00 | 0.00 | 0.00 | 46 | 1009.0 |
| 20260503235033 | 51 | 325 | 2.0 | 7.0 | 0.00 | 0.00 | 0.00 | 45 | 1009.0 |
| 20260503234549 | 51 | 284 | 1.0 | 8.0 | 0.00 | 0.00 | 0.00 | 45 | 1008.9 |
| 20260503234024 | 52 | 323 | 2.0 | 8.0 | 0.00 | 0.00 | 0.00 | 45 | 1008.8 |
| 20260503233545 | 52 | 321 | 2.0 | 7.0 | 0.00 | 0.00 | 0.00 | 45 | 1008.8 |
| 20260503233019 | 52 | 294 | 1.0 | 9.0 | 0.00 | 0.00 | 0.00 | 43 | 1008.7 |
| 20260503232536 | 52 | 333 | 3.0 | 12.0 | 0.00 | 0.00 | 0.00 | 43 | 1008.7 |
| 20260503232014 | 52 | 340 | 3.0 | 12.0 | 0.00 | 0.00 | 0.00 | 42 | 1008.7 |
| 20260503231532 | 52 | 325 | 2.0 | 8.0 | 0.00 | 0.00 | 0.00 | 42 | 1008.7 |
| 20260503231013 | 53 | 293 | 2.0 | 9.0 | 0.00 | 0.00 | 0.00 | 40 | 1008.7 |
| 20260503230527 | 53 | 18 | 2.0 | 9.0 | 0.00 | 0.00 | 0.00 | 41 | 1008.6 |
| 20260503230100 | 53 | 301 | 3.0 | 8.0 | 0.00 | 0.00 | 0.00 | 40 | 1008.6 |
| 20260503225520 | 54 | 355 | 2.0 | 9.0 | 0.00 | 0.00 | 0.00 | 40 | 1008.5 |
| 20260503225037 | 54 | 341 | 2.0 | 9.0 | 0.00 | 0.00 | 0.00 | 40 | 1008.4 |
| 20260503224514 | 54 | 360 | 2.0 | 6.0 | 0.00 | 0.00 | 0.00 | 41 | 1008.3 |
| 20260503224034 | 54 | 338 | 2.0 | 6.0 | 0.00 | 0.00 | 0.00 | 38 | 1008.3 |
| 20260503223521 | 55 | 310 | 2.0 | 10.0 | 0.00 | 0.00 | 0.00 | 37 | 1008.2 |
| 20260503223052 | 55 | 336 | 3.0 | 14.0 | 0.00 | 0.00 | 0.00 | 37 | 1008.0 |
| 20260503222513 | 55 | 300 | 2.0 | 5.0 | 0.00 | 0.00 | 0.00 | 37 | 1008.2 |
| 20260503222047 | 55 | 344 | 2.0 | 14.0 | 0.00 | 0.00 | 0.00 | 36 | 1008.1 |
| 20260503221510 | 55 | 18 | 2.0 | 15.0 | 0.00 | 0.00 | 0.00 | 37 | 1008.1 |
| 20260503221048 | 56 | 320 | 5.0 | 15.0 | 0.00 | 0.00 | 0.00 | 35 | 1008.2 |
| 20260503220531 | 56 | 279 | 4.0 | 11.0 | 0.00 | 0.00 | 0.00 | 37 | 1008.0 |
| 20260503220055 | 56 | 317 | 3.0 | 9.0 | 0.00 | 0.00 | 0.00 | 36 | 1008.1 |
| 20260503215530 | 56 | 345 | 3.0 | 13.0 | 0.00 | 0.00 | 0.00 | 36 | 1008.0 |
| 20260503215009 | 56 | 302 | 4.0 | 14.0 | 0.00 | 0.00 | 0.00 | 34 | 1008.0 |
| 20260503214531 | 56 | 287 | 5.0 | 14.0 | 0.00 | 0.00 | 0.00 | 35 | 1007.9 |
| 20260503214009 | 56 | 5 | 1.0 | 7.0 | 0.00 | 0.00 | 0.00 | 35 | 1007.9 |
| 20260503213529 | 56 | 298 | 2.0 | 7.0 | 0.00 | 0.00 | 0.00 | 35 | 1007.9 |
| 20260503213014 | 55 | 335 | 1.0 | 8.0 | 0.00 | 0.00 | 0.00 | 36 | 1008.1 |
| 20260503212544 | 55 | 296 | 3.0 | 15.0 | 0.00 | 0.00 | 0.00 | 34 | 1008.0 |
| 20260503212024 | 56 | 277 | 5.0 | 15.0 | 0.00 | 0.00 | 0.00 | 34 | 1008.0 |
| 20260503211539 | 56 | 345 | 3.0 | 12.0 | 0.00 | 0.00 | 0.00 | 35 | 1008.1 |
| 20260503211020 | 56 | 334 | 3.0 | 12.0 | 0.00 | 0.00 | 0.00 | 36 | 1008.1 |
| 20260503210535 | 56 | 298 | 4.0 | 11.0 | 0.00 | 0.00 | 0.00 | 36 | 1008.0 |
| 20260503210011 | 56 | 292 | 2.0 | 14.0 | 0.00 | 0.00 | 0.00 | 35 | 1008.1 |
| 20260503205534 | 56 | 300 | 5.0 | 14.0 | 0.00 | 0.00 | 0.00 | 33 | 1008.1 |
| 20260503205005 | 56 | 262 | 4.0 | 12.0 | 0.00 | 0.00 | 0.00 | 35 | 1008.1 |
| 20260503204543 | 56 | 300 | 1.0 | 12.0 | 0.00 | 0.00 | 0.00 | 39 | 1008.1 |
| 20260503204100 | 55 | 289 | 3.0 | 15.0 | 0.00 | 0.00 | 0.00 | 37 | 1008.3 |
| 20260503203521 | 55 | 255 | 3.0 | 11.0 | 0.00 | 0.00 | 0.00 | 41 | 1008.3 |
| 20260503203102 | 55 | 335 | 5.0 | 11.0 | 0.00 | 0.00 | 0.00 | 33 | 1008.3 |
| 20260503202537 | 56 | 339 | 3.0 | 12.0 | 0.00 | 0.00 | 0.00 | 37 | 1008.3 |
| 20260503202049 | 56 | 301 | 2.0 | 16.0 | 0.00 | 0.00 | 0.00 | 36 | 1008.2 |
| 20260503201534 | 55 | 326 | 3.0 | 16.0 | 0.00 | 0.00 | 0.00 | 38 | 1008.3 |
| 20260503201048 | 55 | 301 | 3.0 | 16.0 | 0.00 | 0.00 | 0.00 | 40 | 1008.3 |
| 20260503200530 | 55 | 5 | 3.0 | 12.0 | 0.00 | 0.00 | 0.00 | 35 | 1008.2 |
| 20260503200049 | 55 | 324 | 5.0 | 10.0 | 0.00 | 0.00 | 0.00 | 37 | 1008.4 |
| 20260503195527 | 55 | 307 | 3.0 | 10.0 | 0.00 | 0.00 | 0.00 | 37 | 1008.4 |
| 20260503195045 | 54 | 339 | 5.0 | 11.0 | 0.00 | 0.00 | 0.00 | 41 | 1008.5 |
| 20260503194525 | 55 | 285 | 4.0 | 11.0 | 0.00 | 0.00 | 0.00 | 37 | 1008.5 |
| 20260503194004 | 55 | 322 | 3.0 | 13.0 | 0.00 | 0.00 | 0.00 | 40 | 1008.6 |
| 20260503193524 | 54 | 281 | 4.0 | 13.0 | 0.00 | 0.00 | 0.00 | 39 | 1008.6 |
| 20260503193106 | 54 | 284 | 4.0 | 11.0 | 0.00 | 0.00 | 0.00 | 37 | 1008.7 |
| 20260503192535 | 54 | 331 | 2.0 | 10.0 | 0.00 | 0.00 | 0.00 | 44 | 1008.8 |
| 20260503192048 | 54 | 348 | 3.0 | 13.0 | 0.00 | 0.00 | 0.00 | 42 | 1008.9 |
| 20260503191525 | 54 | 296 | 5.0 | 13.0 | 0.00 | 0.00 | 0.00 | 43 | 1008.9 |
| 20260503191059 | 53 | 300 | 3.0 | 10.0 | 0.00 | 0.00 | 0.00 | 40 | 1008.9 |
| 20260503191004 | 53 | 263 | 2.0 | 10.0 | 0.00 | 0.00 | 0.00 | 43 | 1009.0 |
| 20260503190531 | 53 | 326 | 2.0 | 10.0 | 0.00 | 0.00 | 0.00 | 45 | 1009.1 |
| 20260503190007 | 52 | 318 | 3.0 | 10.0 | 0.00 | 0.00 | 0.00 | 42 | 1009.2 |
| 20260503185543 | 52 | 343 | 2.0 | 11.0 | 0.00 | 0.00 | 0.00 | 45 | 1009.3 |
| 20260503185019 | 52 | 325 | 3.0 | 11.0 | 0.00 | 0.00 | 0.00 | 42 | 1009.4 |
| 20260503184542 | 52 | 300 | 1.0 | 10.0 | 0.00 | 0.00 | 0.00 | 45 | 1009.5 |
| 20260503184013 | 52 | 5 | 3.0 | 12.0 | 0.00 | 0.00 | 0.00 | 43 | 1009.6 |
| 20260503183533 | 51 | 293 | 3.0 | 12.0 | 0.00 | 0.00 | 0.00 | 42 | 1009.6 |
| 20260503183013 | 52 | 327 | 2.0 | 11.0 | 0.00 | 0.00 | 0.00 | 44 | 1009.8 |
| 20260503182549 | 52 | 360 | 2.0 | 12.0 | 0.00 | 0.00 | 0.00 | 46 | 1009.7 |
| 20260503182009 | 52 | 301 | 2.0 | 13.0 | 0.00 | 0.00 | 0.00 | 46 | 1009.7 |
| 20260503181545 | 51 | 360 | 2.0 | 13.0 | 0.00 | 0.00 | 0.00 | 49 | 1009.8 |
| 20260503181025 | 50 | 270 | 2.0 | 12.0 | 0.00 | 0.00 | 0.00 | 51 | 1010.0 |
| 20260503180554 | 50 | 20 | 3.0 | 12.0 | 0.00 | 0.00 | 0.00 | 45 | 1010.1 |
| 20260503180037 | 50 | 349 | 4.0 | 10.0 | 0.00 | 0.00 | 0.00 | 45 | 1009.9 |
| 20260503175503 | 50 | 348 | 2.0 | 8.0 | 0.00 | 0.00 | 0.00 | 47 | 1009.9 |
| 20260503175043 | 50 | 296 | 2.0 | 8.0 | 0.00 | 0.00 | 0.00 | 46 | 1010.0 |
| 20260503174559 | 50 | 338 | 2.0 | 8.0 | 0.00 | 0.00 | 0.00 | 48 | 1010.1 |
| 20260503174501 | 50 | 348 | 2.0 | 8.0 | 0.00 | 0.00 | 0.00 | 48 | 1010.1 |
| 20260503174039 | 49 | 11 | 1.0 | 8.0 | 0.00 | 0.00 | 0.00 | 50 | 1010.1 |
| 20260503173517 | 49 | 328 | 2.0 | 11.0 | 0.00 | 0.00 | 0.00 | 47 | 1010.0 |
| 20260503173033 | 49 | 355 | 2.0 | 11.0 | 0.00 | 0.00 | 0.00 | 47 | 1010.2 |
| 20260503172515 | 49 | 340 | 3.0 | 12.0 | 0.00 | 0.00 | 0.00 | 46 | 1010.2 |
| 20260503172049 | 48 | 342 | 3.0 | 12.0 | 0.00 | 0.00 | 0.00 | 49 | 1010.3 |
| 20260503171510 | 48 | 343 | 1.0 | 8.0 | 0.00 | 0.00 | 0.00 | 51 | 1010.3 |
| 20260503171039 | 47 | 292 | 3.0 | 8.0 | 0.00 | 0.00 | 0.00 | 51 | 1010.4 |
| 20260503170553 | 47 | 360 | 2.0 | 6.0 | 0.00 | 0.00 | 0.00 | 52 | 1010.5 |
| 20260503150541 | 45 | 285 | 2.0 | 15.0 | 0.00 | 0.00 | 0.00 | 60 | 1011.0 |
| 20260503131018 | 44 | 332 | 1.0 | 5.0 | 0.00 | 0.00 | 0.00 | 68 | 1011.3 |
| 20260503130552 | 44 | 295 | 1.0 | 9.0 | 0.00 | 0.00 | 0.00 | 71 | 1011.4 |
| 20260503110546 | 38 | 290 | 2.0 | 7.0 | 0.00 | 0.00 | 0.00 | 80 | 1010.9 |
| 20260503081512 | 36 | 290 | 0.0 | 3.0 | 0.00 | 0.01 | 0.00 | 85 | 1010.8 |
| 20260503081046 | 36 | 296 | 0.0 | 2.0 | 0.00 | 0.01 | 0.00 | 84 | 1010.8 |
| 20260503080522 | 36 | 275 | 0.0 | 1.0 | 0.00 | 0.01 | 0.00 | 84 | 1010.9 |
| 20260503072512 | 36 | 284 | 0.0 | 0.0 | 0.00 | 0.01 | 0.00 | 82 | 1011.0 |
| 20260503072050 | 36 | 284 | 0.0 | 0.0 | 0.00 | 0.01 | 0.00 | 82 | 1011.0 |
| 20260503071511 | 36 | 284 | 0.0 | 2.0 | 0.00 | 0.01 | 0.00 | 82 | 1011.0 |
| 20260503071043 | 36 | 284 | 0.0 | 2.0 | 0.00 | 0.01 | 0.00 | 82 | 1011.0 |
| 20260503070602 | 36 | 279 | 0.0 | 2.0 | 0.00 | 0.01 | 0.00 | 82 | 1011.0 |
| 20260503055010 | 37 | 290 | 1.0 | 7.0 | 0.00 | 0.01 | 0.00 | 78 | 1011.7 |
| 20260503054551 | 37 | 277 | 2.0 | 6.0 | 0.00 | 0.01 | 0.00 | 78 | 1011.8 |
| 20260503054102 | 37 | 280 | 2.0 | 5.0 | 0.00 | 0.01 | 0.00 | 78 | 1011.7 |
| 20260503054006 | 37 | 275 | 1.0 | 5.0 | 0.00 | 0.01 | 0.00 | 78 | 1011.8 |
| 20260503053540 | 37 | 270 | 1.0 | 5.0 | 0.00 | 0.01 | 0.00 | 78 | 1011.8 |
| 20260503053054 | 37 | 273 | 1.0 | 5.0 | 0.00 | 0.01 | 0.00 | 78 | 1011.8 |
| 20260503052534 | 37 | 269 | 1.0 | 4.0 | 0.00 | 0.01 | 0.00 | 78 | 1011.9 |
| 20260503052048 | 37 | 283 | 1.0 | 4.0 | 0.00 | 0.01 | 0.00 | 79 | 1011.9 |
| 20260503051533 | 37 | 291 | 0.0 | 4.0 | 0.00 | 0.01 | 0.00 | 79 | 1011.9 |
| 20260503051045 | 37 | 257 | 2.0 | 4.0 | 0.00 | 0.01 | 0.00 | 79 | 1012.0 |
| 20260503050527 | 37 | 277 | 1.0 | 4.0 | 0.00 | 0.01 | 0.00 | 79 | 1012.0 |
| 20260503050042 | 37 | 282 | 1.0 | 3.0 | 0.00 | 0.04 | 0.00 | 79 | 1012.0 |
| 20260503045520 | 37 | 275 | 0.0 | 2.0 | 0.00 | 0.04 | 0.00 | 80 | 1012.0 |
| 20260503045038 | 37 | 266 | 0.0 | 3.0 | 0.00 | 0.04 | 0.00 | 80 | 1012.0 |
| 20260503044515 | 37 | 290 | 1.0 | 3.0 | 0.00 | 0.04 | 0.00 | 80 | 1012.1 |
| 20260503044034 | 37 | 263 | 0.0 | 2.0 | 0.00 | 0.04 | 0.00 | 81 | 1012.2 |
| 20260503043510 | 36 | 263 | 0.0 | 3.0 | 0.00 | 0.04 | 0.00 | 81 | 1012.2 |
| 20260503043027 | 36 | 280 | 0.0 | 4.0 | 0.00 | 0.04 | 0.00 | 81 | 1012.2 |
| 20260503042505 | 36 | 289 | 0.0 | 4.0 | 0.00 | 0.04 | 0.00 | 81 | 1012.2 |
| 20260503042025 | 36 | 277 | 0.0 | 2.0 | 0.00 | 0.04 | 0.00 | 81 | 1012.2 |
| 20260503041600 | 36 | 279 | 0.0 | 4.0 | 0.00 | 0.04 | 0.00 | 81 | 1012.2 |
| 20260503041506 | 36 | 279 | 0.0 | 4.0 | 0.00 | 0.04 | 0.00 | 81 | 1012.4 |
| 20260503041040 | 37 | 279 | 0.0 | 2.0 | 0.00 | 0.04 | 0.00 | 81 | 1012.3 |
| 20260503040520 | 37 | 275 | 0.0 | 2.0 | 0.00 | 0.04 | 0.00 | 80 | 1012.2 |
| 20260503040050 | 37 | 275 | 0.0 | 1.0 | 0.00 | 0.04 | 0.04 | 80 | 1012.3 |
| 20260503035511 | 37 | 275 | 0.0 | 1.0 | 0.00 | 0.04 | 0.04 | 80 | 1012.3 |
| 20260503035047 | 37 | 275 | 0.0 | 3.0 | 0.00 | 0.04 | 0.04 | 79 | 1012.3 |
| 20260503034557 | 37 | 275 | 0.0 | 3.0 | 0.00 | 0.04 | 0.04 | 79 | 1012.3 |
| 20260503034037 | 37 | 302 | 0.0 | 3.0 | 0.00 | 0.04 | 0.04 | 79 | 1012.3 |
| 20260503033552 | 37 | 265 | 1.0 | 3.0 | 0.00 | 0.04 | 0.04 | 78 | 1012.4 |
| 20260503033035 | 37 | 275 | 0.0 | 2.0 | 0.00 | 0.04 | 0.04 | 79 | 1012.4 |
| 20260503032553 | 38 | 275 | 0.0 | 2.0 | 0.00 | 0.04 | 0.04 | 79 | 1012.4 |
| 20260503032033 | 38 | 276 | 0.0 | 3.0 | 0.00 | 0.04 | 0.04 | 78 | 1012.3 |
| 20260503031507 | 37 | 276 | 0.0 | 3.0 | 0.00 | 0.04 | 0.04 | 78 | 1012.3 |
| 20260503031031 | 37 | 282 | 0.0 | 2.0 | 0.00 | 0.04 | 0.04 | 78 | 1012.3 |
| 20260503030506 | 37 | 281 | 0.0 | 2.0 | 0.00 | 0.04 | 0.04 | 78 | 1012.3 |
| 20260503030027 | 37 | 282 | 0.0 | 1.0 | 0.00 | 0.04 | 0.04 | 78 | 1012.4 |
| 20260503025559 | 37 | 282 | 0.0 | 0.0 | 0.00 | 0.04 | 0.04 | 78 | 1012.2 |
| 20260503025505 | 37 | 282 | 0.0 | 0.0 | 0.00 | 0.04 | 0.04 | 78 | 1012.4 |
| 20260503025043 | 36 | 282 | 0.0 | 0.0 | 0.00 | 0.04 | 0.04 | 78 | 1012.4 |
| 20260503024623 | 37 | 282 | 0.0 | 0.0 | 0.00 | 0.04 | 0.04 | 77 | 1012.3 |
| 20260503024039 | 37 | 282 | 0.0 | 0.0 | 0.00 | 0.04 | 0.04 | 77 | 1012.3 |
| 20260503023556 | 37 | 282 | 0.0 | 0.0 | 0.00 | 0.04 | 0.04 | 76 | 1012.4 |
| 20260503023037 | 37 | 282 | 0.0 | 0.0 | 0.00 | 0.04 | 0.04 | 75 | 1012.4 |
| 20260503022512 | 37 | 282 | 0.0 | 0.0 | 0.00 | 0.04 | 0.04 | 75 | 1012.3 |
| 20260503022032 | 37 | 282 | 0.0 | 0.0 | 0.00 | 0.04 | 0.04 | 74 | 1012.3 |